Location: Gorlice
(49.6633°N, 21.1693°E)
Time: 07:03:49
(UTC+01:00)

ISS - Pass Details

Date: 24 January 2019
Orbit: 403 x 411 km, 51.6° (Epoch: 21 February)

Event Time Altitude Azimuth Distance (km) Brightness Sun altitude
Rises 17:42:07 0° 210° (SSW) 2,323 0.7 -13.7°
Reaches altitude 10° 17:44:30 10° 194° (SSW) 1,469 -0.6 -14.0°
Maximum altitude 17:47:05 21° 142° (SE) 969 -2.2 -14.4°
Enters shadow 17:47:44 20° 124° (SE) 1,010 -2.2 -14.5°
